This is the latest recevied weather packets stored in our database for station/object W5ITZ. If no packets are shown the sender has not sent any weather packets the latest 10 day(s).
| Time | Temp. | Humidity | Pressure | Rain* | Wind** | Luminosity | Snow |
|---|---|---|---|---|---|---|---|
| 1777755572 | 23.89° C | 47% | 1019.1 hPa | 0 mm | - | 706 W/m² | - |
| 1777755268 | 23.89° C | 46% | 1019.3 hPa | 0 mm | - | 737 W/m² | - |
| 1777754965 | 23.89° C | 49% | 1019.4 hPa | 0 mm | - | 761 W/m² | - |
| 1777754662 | 23.89° C | 47% | 1019.2 hPa | 0 mm | - | 776 W/m² | - |
| 1777754360 | 23.89° C | 45% | 1019.3 hPa | 0 mm | - | 786 W/m² | - |
| 1777754057 | 23.89° C | 46% | 1019.4 hPa | 0 mm | - | 802 W/m² | - |
| 1777753753 | 23.89° C | 46% | 1019.3 hPa | 0 mm | - | 817 W/m² | - |
| 1777753450 | 23.89° C | 49% | 1019.4 hPa | 0 mm | - | 829 W/m² | - |
| 1777753148 | 23.89° C | 46% | 1019.2 hPa | 0 mm | - | 840 W/m² | - |
| 1777752844 | 23.89° C | 46% | 1019.4 hPa | 0 mm | - | 856 W/m² | - |
| 1777752540 | 23.89° C | 47% | 1019.4 hPa | 0 mm | - | 866 W/m² | - |
| 1777752236 | 23.33° C | 48% | 1019.4 hPa | 0 mm | - | 876 W/m² | - |
| 1777751934 | 23.89° C | 46% | 1019.3 hPa | 0 mm | - | 889 W/m² | - |
| 1777751631 | 23.33° C | 49% | 1019.3 hPa | 0 mm | - | 898 W/m² | - |
| 1777751327 | 23.89° C | 45% | 1019.4 hPa | 0 mm | - | 905 W/m² | - |
| 1777751024 | 23.33° C | 48% | 1019.4 hPa | 0 mm | - | 916 W/m² | - |
| 1777750720 | 23.33° C | 48% | 1019.1 hPa | 0 mm | - | 926 W/m² | - |
| 1777750418 | 23.33° C | 47% | 1019.5 hPa | 0 mm | - | 934 W/m² | - |
| 1777750113 | 23.33° C | 48% | 1019.4 hPa | 0 mm | - | 941 W/m² | - |
| 1777749810 | 22.78° C | 47% | 1019.6 hPa | 0 mm | - | 950 W/m² | - |
| 1777749507 | 22.78° C | 48% | 1019.4 hPa | 0 mm | - | 957 W/m² | - |
| 1777749205 | 22.78° C | 48% | 1019.2 hPa | 0 mm | - | 963 W/m² | - |
| 1777748902 | 22.78° C | 48% | 1019.8 hPa | 0 mm | - | 968 W/m² | - |
| 1777748599 | 23.33° C | 49% | 1019.6 hPa | 0 mm | - | 975 W/m² | - |
| 1777748295 | 23.33° C | 49% | 1019.7 hPa | 0 mm | - | 978 W/m² | - |
* Rain latest hour (hover to see other rain measurements)
** Current wind speed in m/s (hover to see current wind gust speed)